Regional Weather Roundup
Issued by NWS

Home | Current Version | Previous Version | Graphics & Text | Print | Product List | Glossary On
Versions: 1 2 3 4 5 6 7 8 9 10 11 12 13 14 15 16 17 18 19 20 21 22 23 24 25 26 27 28 29 30 31 32 33 34 35 36 37 38 39 40 41 42 43 44 45 46 47 48 49 50
000
ASUS45 KSLC 232010
RWRUT

UTAH REGIONAL WEATHER ROUNDUP
NATIONAL WEATHER SERVICE SALT LAKE CITY UT
100 PM MST THU NOV 23 2017

UTZ001>011-023>025-232100-

NORTHERN UTAH

CITY           SKY/WX    TMP DP  RH WIND       PRES   REMARKS
BRIGHAM CITY   PTSUNNY   57  40  51 CALM      30.20F
HILL AFB       PTSUNNY   61  40  47 S7        30.20F
LOGAN          PTSUNNY   62  41  46 N3        30.18F
OGDEN          PTSUNNY   61  41  47 CALM      30.19F
SALT LAKE CITY PTSUNNY   63  43  48 NW3       30.19F
TOOELE VALLEY  PTSUNNY   50  43  76 N6        30.21F
WENDOVER       MOSUNNY   50  41  71 SE6       30.21F
HEBER CITY       N/A     55  37  50 CALM      30.23F
WEST JORDAN    PTSUNNY   60  43  53 S10       30.20F

$$

UTZ011>015-024>027-232100-

CENTRAL/NORTHEAST UTAH

CITY           SKY/WX    TMP DP  RH WIND       PRES   REMARKS
PROVO AIRPORT  PTSUNNY   51  41  68 NW3       30.24F
MOAB/CANYONLAN SUNNY     59  33  37 CALM      30.26F
DELTA          MOSUNNY   59  34  38 CALM      30.24F
PRICE          SUNNY     57  31  37 SE7       30.29F
RICHFIELD      SUNNY     63  32  31 CALM      30.26F
ROOSEVELT      CLOUDY    54  32  43 SE3       30.27F
VERNAL         CLOUDY    54  34  46 S5        30.25F

$$

UTZ013>016-019>022-027-232100-

SOUTHERN UTAH

CITY           SKY/WX    TMP DP  RH WIND       PRES   REMARKS
BRYCE CANYON   MOSUNNY   61  31  32 SE9       30.37F
CEDAR CITY     MOSUNNY   67  33  28 S3        30.26F
MILFORD        PTSUNNY   66  35  31 S14       30.23F
ST GEORGE      PTCLDY    62  34  35 CALM      30.19F
HANKSVILLE     SUNNY     55  23  28 CALM      30.29F
KANAB          SUNNY     68  34  28 CALM      30.29F
BLANDING         N/A     60  31  33 S6        30.37F

$$

REGIONAL REPORTS     COLORADO/ARIZONA

CITY           SKY/WX    TMP DP  RH WIND       PRES   REMARKS
CRAIG, CO      CLOUDY    57  36  45 CALM      30.26F
GRAND JUNCTION CLOUDY    57  36  45 VRB3      30.28F
RIFLE, CO      CLOUDY    53  37  54 CALM      30.30F
MONTROSE, CO   CLOUDY    57  34  41 CALM      30.31F
CORTEZ, CO     CLOUDY    60  31  33 S9        30.30F
COLORADO CITY    N/A     72  32  23 CALM      30.28F
PAGE, AZ       MOSUNNY   58  32  37 N3        30.26F
GRAND CANYON   SUNNY     70  23  17 VRB3      30.33F
KINGMAN, AZ    SUNNY     81  33  17 NW5       30.15F
FLAGSTAFF, AZ  SUNNY     69  21  16 CALM      30.34F

$$

REGIONAL REPORTS    NEVADA/IDAHO/WYOMING

CITY           SKY/WX    TMP DP  RH WIND       PRES   REMARKS
LAS VEGAS, NV  PTSUNNY   75  38  26 CALM      30.12F
ELY, NY        PTSUNNY   63  33  32 CALM      30.28F
ELKO, NV       MOSUNNY   58  41  53 CALM      30.21F
POCATELLO, ID  MOSUNNY   65  41  41 SW23G30   30.12F
BURLEY, ID     CLOUDY    65  41  41 S16       30.09F
FORT BRIDGER,    N/A     61  34  36 W24G30    30.28S
EVANSTON, WY   CLOUDY    58  37  45 SW15G22   30.27F
ROCK SPRINGS,  CLOUDY    55  33  43 W20G26    30.21F
KEMMERER, WY   CLOUDY    54  36  50 SW20G25   30.24F

$$



USA.gov is the U.S. government's official web portal to all federal, state and local government web resources and services.